PROFILE

 METAR AND TAF INFORMATION
ADDS - METARS form results

(0830 UTC 25 January 2022)
http://aviationweather.gov/metar/data/
 
LFLL 250800Z VRB01KT 0200 R35L/0375N R17R/0275N R35R/0450N R17L/0300N FZFG VV/// M05/M05 Q1033 NOSIG
LFLL 250741Z 02001KT 0300 R35L/0325N R17R/0350N R35R/0325N R17L/0350N FZFG VV/// M05/M05 Q1033 NOSIG
TAF LFLL 250500Z 2506/2612 VRB02KT 3000 BR NSC PROB40 TEMPO 2506/2510 0300 FZFG VV/// BECMG 2510/2513 8000 NSW BECMG 2520/2523 4000 BR PROB40 TEMPO 2602/2609 0300 FZFG VV/// PROB40 2609/2612 34008KT BKN007 

 AIRPORT MAP

 RUNWAY INFORMATION
Runway 18L Runway length 8760 ft Runway width 148 ft
Runway elevation 780 ft Runway displaced threshold 0 ft Runway heading 175
Runway 36R Runway length 8760 ft Runway width 148 ft
Runway elevation 821 ft Runway displaced threshold 0 ft Runway heading 355
Runway 18R Runway length 13124 ft Runway width 148 ft
Runway elevation 758 ft Runway displaced threshold 0 ft Runway heading 175
Runway 36L Runway length 13124 ft Runway width 148 ft
Runway elevation 813 ft Runway displaced threshold 0 ft Runway heading 355

 AIRPORT FREQUENCIES
Type A/D Name Lyon appro Frequency 136.075 MHZ
Type ATIS Name ATIS Frequency 126.175 MHZ
Type GND Name GND Frequency 121.825 MHZ
Type INFO Name INFO Frequency 135.2 MHZ
Type PFLT Name PREFLIGHT Frequency 121.7 MHZ
Type TWR Name TWR Frequency 120.45 MHZ

 AIRPORT NEAR NAVIGATION AIDS
Type VOR-DME Name Lyon/Saint Exupery Frequency 114750 KHZ